Home > Weather > San Buenaventura > Past weeks

Flag for USA Past Weather in San Buenaventura, California, USA — Yesterday and Last 2 Weeks

Now
64 °F

Clear.


Feels Like: 64 °F
Forecast: 65 / 76 °F
Wind: No wind

Location: Oxnard Airport

Current Time: Jul 30, 2016 at 2:21:21 AM

Latest Report: Jul 30, 2016 at 1:51 AM


Visibility: 10 mi

Pressure: 29.80 "Hg

Humidity: 90%

Dew Point: 61 °F

Location of San BuenaventuraLocation

Past Weather in San Buenaventura — Graph

°F

San Buenaventura Temperature Yesterday

Maximum temperature yesterday: 74 °F (at 11:51 AM)
Minimum temperature yesterday: 63 °F (at 3:51 AM)
Average temperature yesterday: 68 °F

High & Low Weather Summary for the Past Weeks

 TemperatureHumidityPressure
High81 °F (Jul 23, 2:51 PM)100% (Jul 24, 2:51 AM)30.04 "Hg (Jul 24, 2:51 AM)
Low59 °F (Jul 19, 4:51 AM)49% (Jul 23, 2:51 PM)29.77 "Hg (Jul 29, 6:51 PM)
Average68 °F79%29.91 "Hg
* Reported Jul 15 12:51 AM — Jul 30 12:51 AM, San Buenaventura, Weather by CustomWeather, © 2016

Note: Actual official high and low records may vary slightly from our data, if they occured in-between our weather recording intervals... More about our weather records

Advertising

San Buenaventura Weather History for the Previous 24 Hours

Scroll right to see more
 ConditionsComfort  
Time TempWeatherWind HumidityBarometerVisibility
12:51 AM
Sat, Jul 30
64 °FClear.3 mph90%29.80 "Hg10 mi
11:51 PM
Fri, Jul 29
65 °FClear.3 mph87%29.81 "Hg10 mi
10:51 PM64 °FClear.3 mph90%29.80 "Hg10 mi
9:51 PM65 °FClear.7 mph87%29.80 "Hg10 mi
8:51 PM65 °FSunny.8 mph87%29.78 "Hg10 mi
7:51 PM66 °FSunny.13 mph84%29.78 "Hg10 mi
6:51 PM68 °FSunny.14 mph78%29.77 "Hg10 mi
5:51 PM71 °FSunny.14 mph71%29.78 "Hg10 mi
4:51 PM72 °FSunny.14 mph68%29.79 "Hg10 mi
3:51 PM73 °FSunny.15 mph69%29.80 "Hg10 mi
2:51 PM74 °FSunny.12 mph67%29.82 "Hg10 mi
1:51 PM74 °FSunny.13 mph67%29.83 "Hg10 mi
12:51 PM74 °FSunny.13 mph69%29.84 "Hg10 mi
11:51 AM74 °FSunny.12 mph71%29.83 "Hg10 mi
10:51 AM72 °FSunny.12 mph73%29.84 "Hg10 mi
9:51 AM70 °FSunny.8 mph79%29.84 "Hg10 mi
8:51 AM68 °FSunny.6 mph84%29.84 "Hg9 mi
7:51 AM66 °FLow clouds.5 mph90%29.84 "Hg8 mi
6:51 AM65 °FPassing clouds.No wind91%29.84 "Hg7 mi
5:51 AM64 °FClear.3 mph90%29.83 "Hg7 mi
4:51 AM63 °FClear.5 mph93%29.82 "Hg8 mi
3:51 AM63 °FClear.3 mph93%29.83 "Hg9 mi
2:51 AM64 °FClear.5 mph90%29.82 "Hg10 mi
Weather by CustomWeather, © 2016

See weather overviewHow to use our weather pages